Estación de Calama Rural INIA

Ultimos registro cada 15 minutos 31
Estación Fecha / Hora Temperatura Humedad Lluvia Velocidad Dirección Radiación Presion
31 Calama Rural INIA 02-09-2026 07:30 7,6 13,9 0 3,3 76 110 782,3
30 Calama Rural INIA 02-09-2026 07:15 6,2 14,5 0 3,1 66 56 782,3
29 Calama Rural INIA 02-09-2026 07:00 5,5 14,7 0 2,9 67 16,4 782,3
28 Calama Rural INIA 02-09-2026 06:45 5,7 14,6 0 3,2 60 9,5 782,2
27 Calama Rural INIA 02-09-2026 06:30 5,2 15,4 0 3,4 72 8,1 782
26 Calama Rural INIA 02-09-2026 06:15 4,5 17,2 0 3,5 73 7,9 782
25 Calama Rural INIA 02-09-2026 06:00 4,6 16,7 0 3,8 69 8,1 782
24 Calama Rural INIA 02-09-2026 05:45 5,1 16,3 0 3,9 74 9,2 781,9
23 Calama Rural INIA 02-09-2026 05:30 5,6 16,1 0 3,3 78 7,8 781,8
22 Calama Rural INIA 02-09-2026 05:15 4,6 20,1 0 1,6 70 8,1 781,8
21 Calama Rural INIA 02-09-2026 05:00 5,6 18,8 0 3 76 8,2 781,7
20 Calama Rural INIA 02-09-2026 04:45 6,2 16,1 0 2,9 73 8,3 781,6
19 Calama Rural INIA 02-09-2026 04:30 6,5 15,8 0 2,8 68 8,3 781,8
18 Calama Rural INIA 02-09-2026 04:15 6,8 14,1 0 3,1 63 8,2 781,8
17 Calama Rural INIA 02-09-2026 04:00 6,3 15,4 0 3 62 8,5 781,8
16 Calama Rural INIA 02-09-2026 03:45 5,9 16,5 0 2,5 60 8,6 781,8
15 Calama Rural INIA 02-09-2026 03:30 5,9 17,4 0 3,4 74 8,7 781,8
14 Calama Rural INIA 02-09-2026 03:15 6,1 16,6 0 3,4 70 8,8 781,8
13 Calama Rural INIA 02-09-2026 03:00 6,4 17,6 0 3,8 74 9,1 781,8
12 Calama Rural INIA 02-09-2026 02:45 6,3 18,9 0 3 71 9,1 782
11 Calama Rural INIA 02-09-2026 02:30 6,2 18,7 0 2,6 66 9,8 782,1
10 Calama Rural INIA 02-09-2026 02:15 6,3 19,3 0 2,9 74 10 782,3
9 Calama Rural INIA 02-09-2026 02:00 6,5 18,4 0 3,1 73 9,9 782,6
8 Calama Rural INIA 02-09-2026 01:45 7 18,2 0 3 75 8,9 782,5
7 Calama Rural INIA 02-09-2026 01:30 7,2 18,2 0 3,2 75 8,8 782,6
6 Calama Rural INIA 02-09-2026 01:15 7,1 18,9 0 3,3 71 9 782,6
5 Calama Rural INIA 02-09-2026 01:00 8,4 17,8 0 3,1 70 8,8 782,6
4 Calama Rural INIA 02-09-2026 00:45 10 15,7 0 1,7 57 8,6 782,7
3 Calama Rural INIA 02-09-2026 00:30 10 14,8 0 1,9 60 8,6 782,8
2 Calama Rural INIA 02-09-2026 00:15 9,7 17,4 0 1,3 63 8,7 782,7
1 Calama Rural INIA 02-09-2026 00:00 10 20,1 0 0,3 61 8,3 782,7